Theta_e
338 340 342 343 341 341 342 343 343 343 343 341 340 338 338 338 339 339 338 337 338 339 337 336 338 337 335 334 334 334 334 333 333 334 334 333 333 332 331 331 330 330 330 330 330 331 331 331 328 324 321 315
336 338 340 340 340 340 342 343 343 342 342 342 341 340 339 339 340 339 338 338 338 338 338 338 337 337 335 334 334 334 334 333 333 333 333 332 332 333 332 332 332 332 332 331 331 331 332 329 326 323 320 313
333 334 336 337 337 339 341 342 341 340 340 340 340 339 338 338 338 337 337 337 337 337 336 335 335 336 336 334 334 333 333 333 333 333 333 333 332 333 333 333 333 332 332 332 331 331 329 327 323 320 316 313
329 331 331 333 335 337 339 339 338 337 335 335 334 334 334 334 333 332 333 333 331 333 335 334 329 333 334 334 334 333 333 333 333 332 333 333 333 333 333 334 333 332 331 332 332 330 328 324 320 313 311 313
328 330 329 330 331 332 335 336 335 334 331 328 328 328 327 329 331 328 328 328 328 328 327 326 326 331 334 335 334 334 333 333 332 332 332 333 332 333 334 333 333 331 331 332 331 329 325 320 314 311 311 312
329 329 329 328 329 329 331 332 330 330 332 333 330 325 327 332 331 328 327 327 328 326 324 324 323 326 331 334 334 335 333 333 332 332 332 332 332 333 333 330 319 318 320 323 325 325 322 315 312 311 312 311
328 327 327 327 328 329 327 330 330 331 332 331 330 329 330 329 326 327 327 327 327 326 322 325 322 324 328 332 331 333 334 333 332 332 332 332 332 332 332 321 319 317 315 313 318 318 316 313 313 311 311 311
327 326 326 326 327 328 327 328 328 329 330 330 329 329 329 329 326 325 325 328 328 327 325 323 322 324 327 329 328 329 331 331 331 332 332 332 332 331 325 320 318 316 316 315 314 311 311 311 312 312 312 311
327 327 326 326 327 327 327 326 326 327 328 328 328 328 328 328 326 325 324 326 327 325 325 325 326 326 327 327 326 325 323 321 320 322 317 318 323 322 323 319 317 315 315 316 316 316 314 314 314 314 314 311
327 327 325 325 326 326 326 326 326 326 327 327 327 327 328 327 325 323 324 327 327 325 325 325 326 327 328 327 327 326 325 323 321 319 317 320 325 324 322 319 316 314 315 316 316 316 316 315 315 315 315 312
328 326 326 325 325 326 326 325 325 325 326 326 327 327 327 326 324 323 324 326 327 326 326 326 327 327 327 327 327 326 324 322 321 319 318 319 322 321 320 318 316 314 314 315 316 316 316 316 316 316 315 313
328 327 326 325 324 326 325 325 325 325 326 326 326 326 326 326 325 323 323 326 327 327 326 326 326 327 327 327 327 326 324 323 323 321 318 317 318 318 317 316 315 315 315 315 315 316 316 316 315 315 315 315
329 328 326 325 324 325 324 326 325 325 326 325 326 326 326 325 325 322 324 325 326 326 325 325 324 325 326 326 326 326 324 323 322 321 320 317 316 316 315 314 314 314 314 315 315 315 316 316 314 313 314 314
328 328 327 326 324 325 323 325 326 325 325 326 325 326 326 326 326 323 323 324 325 325 325 324 323 323 322 323 324 325 323 322 322 321 319 318 317 317 316 315 315 313 314 314 315 315 315 315 315 315 314 314
329 328 328 327 326 324 324 325 325 325 326 325 325 326 326 326 326 323 322 323 324 324 324 323 321 321 321 321 322 323 324 324 322 321 320 318 317 316 316 316 316 315 314 315 315 315 315 315 314 315 315 314
329 328 328 328 327 325 324 324 325 325 325 324 325 325 325 327 327 323 321 322 322 323 322 321 319 319 319 320 321 321 321 321 320 320 319 317 316 316 316 316 315 314 315 315 316 316 316 315 315 314 315 315
331 330 329 328 327 327 325 324 324 324 325 325 324 324 325 326 326 324 322 321 320 319 320 319 318 317 317 318 320 319 319 319 318 317 317 317 315 315 314 314 314 314 314 315 315 315 316 315 315 316 315 316
330 330 329 328 328 327 326 325 324 324 324 324 324 323 323 325 325 324 323 322 321 320 318 318 318 318 317 317 317 318 318 318 316 316 315 315 314 314 314 314 314 313 313 313 314 315 315 315 315 315 316 316
330 330 329 328 328 327 327 326 325 324 324 324 324 323 322 323 323 323 323 322 321 320 319 318 317 317 318 317 316 316 316 317 316 315 315 314 313 313 312 312 313 313 314 313 313 314 314 314 315 314 315 316
330 329 329 329 327 328 327 326 326 325 325 325 325 324 323 322 322 322 322 321 321 320 319 319 318 318 317 316 316 316 315 315 316 315 314 314 314 313 312 311 311 311 312 312 313 313 313 314 314 314 315 315
329 329 329 329 328 328 327 327 327 326 326 325 325 325 324 323 322 321 322 322 321 320 319 319 318 318 317 316 316 316 315 315 316 315 315 314 313 313 314 311 310 310 310 311 312 312 312 313 314 314 315 315
329 329 329 328 328 326 327 327 327 327 327 326 326 325 325 325 323 322 321 321 321 320 320 319 318 318 317 317 316 316 316 316 316 315 315 314 313 312 312 312 311 310 310 310 311 311 311 313 313 314 314 315
329 328 328 328 327 326 326 327 327 327 327 327 327 326 326 325 324 322 323 322 321 320 320 318 318 317 317 316 316 316 316 315 315 315 315 315 315 312 312 313 312 311 309 309 309 310 311 312 313 314 314 314
327 326 326 325 325 325 326 327 326 326 327 328 327 327 327 325 325 324 323 323 322 321 320 319 318 317 316 316 316 316 315 316 315 315 315 315 315 314 312 311 311 310 308 307 306 307 309 311 312 313 314 314
326 325 325 325 325 325 327 326 327 326 326 327 328 327 327 326 325 325 324 323 324 323 320 320 320 318 316 316 316 316 316 317 316 316 316 316 314 314 313 313 312 311 308 307 307 307 307 308 310 311 312 314
326 327 327 326 326 327 327 326 325 326 327 327 327 327 327 326 326 325 325 323 324 323 323 322 321 320 319 317 316 317 317 316 315 316 316 316 314 314 314 314 314 311 308 305 306 305 302 304 308 310 312 313
325 327 327 327 326 327 326 328 328 327 327 326 326 327 327 326 326 325 325 325 324 324 324 323 322 321 321 319 317 315 316 316 315 316 316 316 315 314 313 314 313 311 311 310 305 303 303 302 302 305 307 312
327 327 327 327 326 323 326 324 323 325 324 324 325 326 326 326 326 326 325 325 325 324 325 325 324 323 322 322 320 318 317 316 316 316 316 316 315 315 313 312 313 312 310 311 306 301 303 299 299 301 303 307
325 325 322 324 322 319 319 318 318 319 323 324 324 325 325 326 326 326 325 325 325 324 324 325 325 324 324 324 323 322 320 318 317 317 317 317 316 315 315 313 313 310 311 310 312 308 302 300 299 302 299 301
325 324 324 323 322 321 321 321 320 320 321 323 323 324 326 326 326 326 325 325 325 325 323 324 325 325 325 324 324 324 323 321 320 318 317 317 317 316 316 315 313 312 309 311 311 312 312 307 302 299 298 302
324 324 324 323 323 323 322 321 322 324 323 323 324 324 324 325 325 326 325 325 325 325 324 324 324 325 325 325 324 323 323 322 321 320 319 318 317 317 316 315 314 313 312 307 310 311 312 311 307 299 301 300
Wind_Speed
8 6 5 8 8 8 9 11 12 11 11 12 12 12 12 12 11 10 10 8 8 7 8 9 8 8 8 9 9 9 8 8 8 9 8 7 7 6 6 5 4 4 3 3 2 3 3 3 3 3 5 3
9 7 6 6 6 8 7 9 9 9 9 8 9 10 9 8 9 9 9 8 8 7 5 6 6 5 8 9 9 8 8 9 10 9 8 7 7 6 6 5 4 4 4 3 3 2 3 4 4 5 6 2
7 9 7 7 6 7 10 9 8 7 7 8 6 6 7 7 8 8 7 8 7 6 8 8 7 5 4 8 8 8 9 9 9 8 7 7 7 7 5 5 5 5 5 4 3 2 3 4 5 5 4 1
6 8 9 7 7 8 10 11 10 9 7 9 8 7 8 7 6 5 5 7 5 6 8 8 6 7 6 8 8 7 6 8 8 8 8 8 7 7 6 6 5 6 6 4 4 4 5 4 4 3 3 1
6 7 9 7 8 9 11 11 11 9 10 8 7 7 8 8 6 4 3 3 2 5 3 4 5 6 7 8 8 8 7 7 7 8 8 8 8 7 7 5 5 5 6 6 6 6 5 3 3 2 1 1
5 5 8 6 5 5 7 9 9 8 7 6 4 5 5 5 5 4 3 3 4 3 4 3 4 3 6 7 7 7 9 8 8 8 9 9 8 8 7 3 2 4 6 8 8 7 6 4 3 3 1 2
6 6 6 6 6 6 7 7 8 7 7 7 6 6 5 4 4 4 4 4 5 5 5 5 5 4 5 8 8 7 8 8 8 9 9 9 9 8 5 1 2 3 3 4 6 5 4 3 5 3 2 3
7 6 6 6 6 6 6 7 7 6 7 7 8 7 6 5 5 5 5 6 9 7 4 3 4 5 6 8 8 8 6 6 6 7 8 7 7 6 1 1 2 3 4 4 4 3 3 3 5 5 4 3
7 6 6 6 6 6 6 7 7 7 8 8 9 8 7 6 5 5 5 5 5 5 5 4 4 4 4 4 5 6 4 3 3 3 3 3 2 2 3 3 4 4 5 5 5 5 4 4 4 5 5 4
7 7 7 7 7 6 6 7 7 7 7 6 7 7 7 7 6 6 6 6 7 6 7 7 6 6 5 5 6 5 5 4 4 4 4 3 4 4 3 4 5 5 5 6 5 5 5 5 5 6 6 4
7 7 7 6 7 7 6 6 7 7 7 8 8 7 8 7 7 7 6 7 8 7 6 7 7 7 7 6 6 6 6 5 5 5 5 4 5 4 5 5 5 5 5 6 6 6 6 5 6 6 7 6
8 7 7 8 7 8 8 8 7 7 7 7 8 9 8 8 7 7 7 8 8 8 8 8 7 7 7 7 7 6 6 7 6 5 5 5 5 5 5 6 6 6 6 6 6 6 7 7 7 7 7 7
8 7 8 7 7 8 7 7 7 7 6 7 7 7 8 8 8 7 7 8 8 7 8 8 7 7 7 7 7 6 6 7 7 6 6 6 6 5 6 6 7 6 6 6 6 7 7 7 6 6 6 6
8 8 8 8 8 8 7 8 7 6 7 7 7 7 7 8 7 8 8 8 8 9 9 8 8 8 7 7 6 7 7 7 7 7 6 6 6 6 6 6 7 6 6 6 6 6 7 7 7 6 6 7
9 8 9 9 8 7 8 8 7 7 7 7 7 8 8 7 8 7 7 7 8 8 8 8 8 8 7 7 7 7 8 7 8 7 7 7 7 7 7 7 6 6 6 7 7 6 7 7 6 6 6 6
10 10 10 9 8 8 8 8 8 8 8 8 8 8 8 8 8 7 7 8 7 8 8 8 8 7 7 8 6 7 7 7 7 7 7 7 7 7 7 7 6 6 6 7 7 6 7 6 6 6 6 6
10 9 9 9 9 8 8 8 8 9 9 8 8 8 9 9 9 8 8 7 8 7 7 7 7 7 8 7 6 6 7 7 6 6 6 7 6 6 6 6 7 5 6 7 7 7 7 6 6 6 6 6
10 10 9 9 8 8 9 8 9 9 8 9 8 8 9 9 9 9 8 7 7 7 7 7 7 8 7 5 5 6 6 7 6 6 6 6 6 7 7 8 7 6 7 7 6 7 6 6 7 6 7 7
12 10 10 9 9 8 9 8 9 9 8 9 9 8 8 9 9 9 9 8 8 8 8 8 8 7 6 5 5 6 6 6 6 6 7 6 7 6 7 6 6 7 8 7 8 8 6 7 6 6 7 7
12 11 10 9 9 8 8 8 8 8 8 8 8 9 9 9 10 9 9 9 8 8 8 8 8 8 6 5 6 6 6 6 7 6 6 6 6 7 7 6 8 6 8 7 8 6 6 7 7 7 7 8
10 10 10 10 9 9 8 9 9 8 7 7 8 7 8 9 9 10 10 9 8 8 8 8 8 7 6 6 6 6 6 7 7 7 7 6 6 6 7 6 8 7 7 7 7 6 7 7 7 8 8 8
11 10 10 8 8 8 9 9 9 8 7 8 8 7 9 8 8 8 9 10 9 9 9 8 8 7 7 7 7 7 7 8 7 7 7 8 6 7 7 8 7 8 6 5 6 6 7 8 7 8 8 8
9 8 7 6 7 8 9 8 8 7 8 9 8 9 9 8 8 8 9 9 10 10 9 8 8 7 7 7 7 7 8 8 8 7 7 9 8 6 7 8 8 8 6 6 5 6 8 8 9 7 7 7
8 7 8 9 6 8 9 9 9 9 9 8 9 10 9 9 9 8 9 9 9 10 9 9 8 8 7 7 7 8 9 10 9 10 9 10 9 8 7 7 8 6 6 5 6 8 9 9 9 9 8 8
10 10 9 8 11 13 11 11 10 9 10 10 10 10 9 9 9 9 9 9 9 9 9 8 7 7 7 7 8 9 11 10 9 9 9 9 8 10 10 9 8 7 4 5 8 8 10 9 7 9 9 11
10 11 12 12 13 12 11 10 11 12 11 12 9 8 9 9 9 10 10 10 10 9 9 9 8 8 9 7 8 9 8 7 8 9 9 7 7 8 11 10 7 6 6 6 10 7 5 5 6 11 11 12
12 11 11 11 10 10 9 7 8 8 7 6 8 9 9 10 10 11 11 11 11 11 11 11 10 10 8 8 7 7 8 8 9 9 11 10 10 7 6 8 4 7 11 9 3 3 4 7 5 4 5 9
13 12 11 8 6 4 6 5 3 5 4 6 7 10 9 10 11 11 11 12 11 11 11 11 11 9 9 10 9 9 9 9 11 10 10 10 11 8 9 7 9 7 8 8 6 3 8 4 0 10 7 9
11 9 6 6 4 1 1 2 3 4 8 9 9 9 10 13 10 11 12 11 12 11 12 10 10 10 10 10 10 9 10 11 12 11 11 11 10 11 12 11 7 5 8 10 10 7 2 0 1 8 4 0
11 11 11 9 9 9 9 9 8 11 13 11 12 14 10 8 10 11 11 11 11 11 10 11 11 11 11 11 10 10 11 11 10 11 12 12 11 11 12 11 7 8 6 11 12 13 11 6 6 2 2 1
11 11 10 12 13 13 13 13 11 10 8 9 9 7 8 9 8 10 12 11 11 11 11 11 11 11 11 11 10 10 10 11 12 11 10 8 10 11 8 8 12 13 7 3 9 11 13 14 8 2 1 5
Wind_Direction
172 184 204 180 186 188 184 176 177 173 170 170 168 168 167 167 165 167 171 147 131 140 168 171 161 167 162 164 162 159 162 163 167 171 167 168 169 177 180 189 201 215 231 257 302 313 328 335 4 15 51 51
181 192 171 169 181 184 165 165 172 176 172 179 169 169 172 166 160 166 165 152 152 161 157 113 114 140 173 172 167 170 172 180 177 177 174 173 181 183 185 195 210 233 242 258 270 298 309 331 352 9 56 34
182 182 162 153 153 168 158 162 168 173 175 170 169 166 158 152 151 158 160 159 166 160 142 140 139 154 171 172 174 183 185 192 186 176 179 182 188 190 191 202 216 233 251 256 269 290 300 319 347 10 51 19
170 175 161 157 151 155 162 162 166 173 172 163 168 162 142 143 143 145 158 168 161 153 153 152 153 160 165 176 183 188 194 199 189 189 194 195 197 195 202 215 229 245 257 264 273 275 287 327 346 353 80 308
173 177 165 163 158 157 166 166 168 169 169 161 159 153 149 148 150 140 136 140 126 126 118 150 165 172 172 179 180 183 192 199 200 204 203 204 207 206 215 225 250 292 293 299 295 286 285 313 314 308 27 264
179 181 171 166 168 159 164 165 156 159 160 157 153 149 150 158 159 149 148 145 150 146 145 153 187 214 196 178 175 186 195 198 197 207 211 216 216 216 226 230 314 304 297 292 287 298 309 302 286 281 309 246
184 181 178 175 171 162 160 161 160 163 162 163 166 170 170 171 170 164 161 166 172 169 173 172 189 204 225 182 181 191 202 205 207 211 214 218 223 222 224 151 270 281 287 288 288 299 304 300 280 277 236 218
185 183 184 181 178 168 168 163 169 168 171 170 172 177 178 179 182 175 173 173 168 162 168 180 195 213 216 191 185 197 209 219 217 221 225 225 224 230 149 204 247 267 274 273 277 275 259 266 274 272 260 214
194 189 183 187 183 179 175 176 173 174 175 177 180 183 185 186 182 179 168 163 167 181 175 178 188 194 197 188 194 193 201 225 246 256 257 274 233 196 211 225 246 245 265 265 267 264 252 252 262 267 255 217
195 192 193 189 188 184 186 180 182 185 182 180 182 183 185 187 186 181 175 176 177 188 187 180 185 194 199 189 191 193 197 207 218 239 238 227 222 221 219 237 244 239 240 261 262 259 253 245 257 257 260 217
191 195 197 191 189 186 194 191 188 192 187 187 186 184 183 186 189 186 184 185 185 193 197 197 187 190 191 204 205 191 187 205 212 224 224 216 221 223 231 240 245 243 241 244 257 258 255 249 244 247 252 235
195 194 193 196 192 197 192 191 200 197 195 189 190 189 190 189 185 185 188 190 192 197 194 204 204 193 196 193 198 209 200 201 207 216 225 221 223 225 230 239 242 238 236 239 239 254 255 251 244 241 239 235
196 193 195 195 196 199 193 200 200 197 196 201 199 199 195 192 189 188 187 190 193 193 198 200 202 201 200 200 200 198 212 203 208 210 218 220 223 222 230 232 242 236 238 235 235 232 245 242 238 235 235 231
191 193 195 199 199 197 194 204 198 194 202 205 201 208 206 202 198 195 194 190 191 192 198 200 203 201 202 204 199 201 205 185 209 217 217 219 220 224 229 234 237 230 239 235 233 231 233 236 236 229 223 226
196 190 199 199 198 195 199 199 198 200 202 205 205 205 207 208 207 195 198 195 194 197 197 199 200 206 203 206 203 204 212 206 205 215 215 212 214 218 225 231 233 229 239 243 240 230 226 232 233 243 242 238
199 197 200 199 195 199 200 193 200 203 203 206 207 205 205 208 209 199 201 196 196 199 202 205 206 207 207 211 202 202 210 207 208 210 214 212 213 217 219 228 231 231 233 244 244 244 239 237 233 238 244 247
203 201 200 199 201 200 195 196 200 205 205 207 205 205 205 207 208 207 202 199 196 198 205 209 212 216 217 211 202 203 212 214 212 217 219 220 211 219 221 227 238 238 238 242 243 239 242 240 245 239 238 243
202 205 203 203 204 200 195 199 200 207 206 205 205 204 206 206 207 208 210 203 204 196 205 215 220 221 223 216 208 205 204 215 213 220 221 227 222 229 224 230 232 234 246 243 245 241 240 238 242 243 244 239
205 202 202 204 206 204 200 199 204 205 202 202 205 201 207 204 204 207 209 210 206 207 205 214 223 224 224 209 210 210 210 210 218 218 223 214 227 239 240 241 241 233 243 242 239 239 236 241 241 242 242 239
206 203 203 203 206 206 204 205 207 205 202 199 196 198 202 201 202 202 206 209 206 209 208 214 220 221 209 206 207 215 212 211 220 218 229 224 215 229 244 248 254 243 249 246 250 244 240 244 238 240 240 237
207 204 205 205 203 206 202 208 213 211 206 204 203 200 200 197 197 199 202 205 204 209 210 214 220 216 203 194 202 210 210 213 213 207 220 227 221 221 240 232 250 252 247 254 256 256 249 247 242 242 240 237
206 207 207 207 206 203 206 212 214 212 204 212 212 206 212 201 198 199 199 200 202 209 213 211 213 211 202 192 198 209 210 218 207 210 206 225 216 216 229 239 241 249 247 247 258 259 254 253 243 242 241 239
208 207 211 211 208 210 216 218 217 211 212 216 213 216 215 204 203 204 204 202 200 206 210 211 209 206 201 192 198 205 214 220 215 214 212 220 226 210 221 233 237 242 240 248 252 255 255 253 247 246 241 239
204 201 205 209 213 227 223 220 218 216 220 215 218 220 213 209 211 205 205 207 207 210 210 212 212 208 194 197 196 205 214 220 214 214 216 225 224 228 232 228 238 234 236 257 259 261 260 250 253 248 241 240
196 200 208 215 213 219 216 216 217 220 219 219 221 217 212 212 215 213 209 209 205 213 215 217 215 210 205 199 203 209 218 218 219 216 214 221 212 222 231 237 221 227 190 243 274 255 259 266 252 251 244 244
202 205 205 202 211 213 214 211 209 219 217 218 220 214 211 213 215 214 214 211 210 211 209 215 215 212 213 204 213 220 223 221 219 215 215 212 230 218 227 240 212 205 143 231 232 258 297 278 258 239 236 240
207 210 214 207 215 209 224 228 226 232 230 223 221 216 212 212 213 212 215 213 212 215 213 214 212 216 211 211 211 219 226 223 224 218 218 211 221 230 235 250 223 194 185 235 199 237 328 284 304 294 251 243
211 212 217 221 228 227 221 219 228 229 229 224 222 224 212 215 213 211 216 213 214 217 220 217 218 216 212 217 209 216 226 224 228 220 221 218 221 218 243 224 239 194 200 207 127 233 214 239 191 306 257 229
206 205 209 213 225 238 270 264 207 205 230 223 224 228 218 220 207 212 216 214 214 214 219 218 219 218 219 219 218 218 226 229 228 224 224 218 218 212 223 239 232 213 200 212 205 192 119 251 258 239 277 73
197 202 201 196 203 215 218 227 211 216 219 214 217 221 223 220 211 214 217 216 215 214 214 217 216 217 219 221 222 222 229 234 234 229 225 220 221 226 221 233 241 240 208 215 213 222 229 175 188 211 260 57
196 204 205 206 209 213 214 221 228 226 226 223 227 227 225 221 215 216 218 219 216 214 212 214 214 216 218 220 222 222 228 233 232 233 229 223 222 230 227 220 240 239 222 213 238 227 235 248 238 146 62 262